SWA636 KSAT-KELP

Flight info

Callsign SWA636
Flight time 1h 23m
Altitude 28000
Route FST
Aircraft B738/M-SDE3/STD

Departure

Time 2026-04-21 18:00
Airport San Antonio International Airport (KSAT)

Arrival

Time 2026-04-21 19:23
Airport El Paso International Airport (KELP)
Time Latitude Longitude Altitude Speed Heading
2026-04-21 17:29 29.52905 -98.47263 817 ft 0 kts 131°
2026-04-21 17:47 29.52914 -98.47274 817 ft 4 kts 131°
2026-04-21 17:47 29.52929 -98.47295 817 ft 2 kts 128°
2026-04-21 17:47 29.52937 -98.47309 817 ft 1 kts 107°
2026-04-21 17:47 29.52939 -98.47323 817 ft 1 kts 85°
2026-04-21 17:48 29.52937 -98.47332 817 ft 1 kts 70°
2026-04-21 17:48 29.52928 -98.47348 817 ft 1 kts 43°
2026-04-21 17:48 29.52925 -98.47352 817 ft 0 kts 41°
2026-04-21 17:52 29.52926 -98.47351 817 ft 1 kts 42°
2026-04-21 17:52 29.52951 -98.47318 817 ft 9 kts 50°
2026-04-21 17:52 29.53014 -98.47265 817 ft 12 kts 11°
2026-04-21 17:53 29.53087 -98.47319 817 ft 14 kts 311°
2026-04-21 17:53 29.53145 -98.47420 817 ft 15 kts 303°
2026-04-21 17:53 29.53206 -98.47513 817 ft 13 kts 311°
2026-04-21 17:53 29.53265 -98.47589 817 ft 11 kts 312°
2026-04-21 17:54 29.53317 -98.47656 817 ft 14 kts 312°
2026-04-21 17:54 29.53404 -98.47741 817 ft 18 kts 341°
2026-04-21 17:54 29.53524 -98.47794 817 ft 18 kts 326°
2026-04-21 17:54 29.53616 -98.47897 817 ft 18 kts 313°
2026-04-21 17:55 29.53696 -98.48003 817 ft 17 kts 313°
2026-04-21 17:55 29.53778 -98.48107 817 ft 16 kts 312°
2026-04-21 17:55 29.53846 -98.48196 817 ft 12 kts 310°
2026-04-21 17:55 29.53886 -98.48218 817 ft 0 kts 10°
2026-04-21 17:57 29.53925 -98.48193 817 ft 11 kts 39°
2026-04-21 17:58 29.53947 -98.48133 817 ft 6 kts 128°
2026-04-21 17:58 29.53941 -98.48126 817 ft 0 kts 132°
2026-04-21 17:59 29.53768 -98.47903 817 ft 85 kts 132°
2026-04-21 17:59 29.53177 -98.47144 853 ft 167 kts 131°
2026-04-21 18:00 29.52308 -98.46018 1382 ft 206 kts 130°
2026-04-21 18:00 29.51323 -98.44667 2118 ft 240 kts 129°
2026-04-21 18:00 29.50232 -98.43149 2715 ft 253 kts 130°
2026-04-21 18:00 29.49131 -98.41589 3229 ft 253 kts 124°
2026-04-21 18:01 29.48478 -98.39691 3720 ft 255 kts 100°
2026-04-21 18:01 29.48528 -98.37666 4225 ft 259 kts 78°
2026-04-21 18:01 29.49250 -98.35785 4726 ft 265 kts 57°
2026-04-21 18:01 29.50528 -98.34239 5251 ft 269 kts 44°
2026-04-21 18:02 29.51917 -98.32776 5756 ft 273 kts 44°
2026-04-21 18:02 29.53314 -98.31309 6255 ft 275 kts 44°
2026-04-21 18:02 29.54923 -98.30103 6731 ft 280 kts 23°
2026-04-21 18:02 29.56814 -98.29644 7242 ft 283 kts 360°
2026-04-21 18:03 29.58760 -98.30159 7815 ft 284 kts 332°
2026-04-21 18:03 29.60294 -98.31545 8372 ft 284 kts 307°
2026-04-21 18:03 29.61473 -98.33385 8933 ft 286 kts 304°
2026-04-21 18:03 29.62645 -98.35288 9449 ft 288 kts 304°
2026-04-21 18:04 29.63787 -98.37144 9944 ft 289 kts 304°
2026-04-21 18:04 29.64966 -98.39059 10501 ft 302 kts 304°
2026-04-21 18:04 29.65940 -98.41177 11022 ft 303 kts 289°
2026-04-21 18:04 29.66672 -98.43430 11549 ft 300 kts 289°
2026-04-21 18:05 29.67293 -98.45715 12063 ft 306 kts 284°
2026-04-21 18:05 29.67880 -98.48158 12709 ft 327 kts 284°
2026-04-21 18:05 29.68510 -98.50738 13394 ft 346 kts 284°
2026-04-21 18:05 29.69179 -98.53437 14053 ft 356 kts 284°
2026-04-21 18:06 29.69900 -98.56139 14598 ft 355 kts 289°
2026-04-21 18:06 29.70967 -98.58676 15089 ft 353 kts 294°
2026-04-21 18:06 29.72067 -98.61175 15576 ft 351 kts 294°
2026-04-21 18:06 29.73175 -98.63661 16069 ft 349 kts 294°
2026-04-21 18:07 29.74295 -98.66155 16594 ft 360 kts 294°
2026-04-21 18:07 29.75327 -98.68806 17146 ft 367 kts 284°
2026-04-21 18:07 29.76083 -98.71594 17719 ft 364 kts 284°
2026-04-21 18:07 29.76839 -98.74367 18253 ft 360 kts 284°
2026-04-21 18:08 29.77584 -98.77116 18731 ft 357 kts 283°
2026-04-21 18:08 29.78357 -98.79818 19225 ft 354 kts 284°
2026-04-21 18:08 29.79110 -98.82513 19726 ft 352 kts 284°
2026-04-21 18:08 29.79860 -98.85184 20225 ft 349 kts 284°
2026-04-21 18:09 29.80599 -98.87806 20720 ft 346 kts 284°
2026-04-21 18:09 29.81343 -98.90437 21220 ft 343 kts 284°
2026-04-21 18:09 29.82073 -98.93018 21714 ft 340 kts 284°
2026-04-21 18:09 29.82799 -98.95589 22211 ft 337 kts 284°
2026-04-21 18:10 29.83523 -98.98163 22711 ft 334 kts 284°
2026-04-21 18:10 29.84230 -99.00688 23206 ft 332 kts 284°
2026-04-21 18:10 29.84928 -99.03187 23698 ft 329 kts 284°
2026-04-21 18:10 29.85628 -99.05714 24215 ft 334 kts 284°
2026-04-21 18:11 29.86331 -99.08288 24734 ft 343 kts 284°
2026-04-21 18:11 29.87044 -99.10937 25252 ft 351 kts 284°
2026-04-21 18:11 29.88074 -99.13522 25734 ft 361 kts 297°
2026-04-21 18:11 29.89365 -99.15978 26257 ft 358 kts 297°
2026-04-21 18:12 29.90643 -99.18410 26737 ft 354 kts 297°
2026-04-21 18:12 29.91865 -99.20831 27206 ft 348 kts 292°
2026-04-21 18:12 29.92734 -99.23439 27715 ft 343 kts 285°
2026-04-21 18:12 29.93516 -99.26054 28192 ft 341 kts 285°
2026-04-21 18:13 29.94295 -99.28632 28683 ft 338 kts 287°
2026-04-21 18:13 29.95051 -99.31177 29166 ft 335 kts 287°
2026-04-21 18:13 29.95798 -99.33728 29654 ft 332 kts 287°
2026-04-21 18:13 29.96519 -99.36207 30131 ft 329 kts 287°
2026-04-21 18:14 29.97985 -99.41270 30896 ft 338 kts 288°
2026-04-21 18:14 29.98732 -99.43848 31245 ft 345 kts 288°
2026-04-21 18:14 29.99488 -99.46465 31584 ft 347 kts 288°
2026-04-21 18:15 30.00248 -99.49098 31909 ft 344 kts 288°
2026-04-21 18:15 30.00995 -99.51688 32231 ft 341 kts 288°
2026-04-21 18:15 30.01742 -99.54280 32522 ft 340 kts 288°
2026-04-21 18:15 30.02481 -99.56847 32795 ft 338 kts 288°
2026-04-21 18:16 30.03217 -99.59408 33068 ft 337 kts 289°
2026-04-21 18:16 30.03960 -99.61992 33345 ft 335 kts 289°
2026-04-21 18:16 30.04683 -99.64512 33614 ft 334 kts 289°
2026-04-21 18:16 30.05413 -99.67062 33909 ft 333 kts 289°
2026-04-21 18:17 30.06134 -99.69572 34205 ft 332 kts 289°
2026-04-21 18:17 30.06863 -99.72111 34481 ft 335 kts 289°
2026-04-21 18:17 30.07602 -99.74688 34744 ft 341 kts 289°
2026-04-21 18:17 30.08352 -99.77308 35006 ft 347 kts 289°
2026-04-21 18:18 30.09103 -99.79936 35253 ft 349 kts 289°
2026-04-21 18:18 30.09861 -99.82591 35494 ft 347 kts 289°
2026-04-21 18:18 30.10613 -99.85229 35745 ft 346 kts 289°
2026-04-21 18:18 30.11365 -99.87890 36001 ft 345 kts 288°
2026-04-21 18:19 30.12113 -99.90523 36256 ft 345 kts 288°
2026-04-21 18:19 30.12860 -99.93153 36509 ft 345 kts 288°
2026-04-21 18:19 30.13612 -99.95798 36721 ft 350 kts 288°
2026-04-21 18:19 30.14376 -99.98489 36939 ft 356 kts 288°
2026-04-21 18:20 30.15149 -100.01211 37153 ft 362 kts 288°
2026-04-21 18:20 30.15936 -100.03983 37359 ft 364 kts 288°
2026-04-21 18:20 30.16718 -100.06745 37555 ft 363 kts 288°
2026-04-21 18:20 30.17507 -100.09534 37752 ft 362 kts 288°
2026-04-21 18:21 30.18301 -100.12339 37952 ft 362 kts 288°
2026-04-21 18:21 30.19091 -100.15133 38151 ft 362 kts 289°
2026-04-21 18:21 30.19866 -100.17879 38346 ft 362 kts 289°
2026-04-21 18:21 30.20648 -100.20648 38542 ft 362 kts 289°
2026-04-21 18:22 30.21431 -100.23422 38737 ft 362 kts 289°
2026-04-21 18:22 30.22207 -100.26182 38929 ft 362 kts 289°
2026-04-21 18:22 30.22994 -100.28970 39125 ft 362 kts 289°
2026-04-21 18:22 30.23781 -100.31767 39319 ft 362 kts 289°
2026-04-21 18:23 30.24555 -100.34519 39509 ft 362 kts 289°
2026-04-21 18:23 30.25334 -100.37296 39700 ft 362 kts 289°
2026-04-21 18:23 30.26106 -100.40048 39888 ft 362 kts 289°
2026-04-21 18:23 30.26884 -100.42824 40072 ft 362 kts 289°
2026-04-21 18:24 30.27662 -100.45606 40078 ft 366 kts 289°
2026-04-21 18:24 30.29258 -100.51320 40051 ft 383 kts 289°
2026-04-21 18:25 30.30914 -100.57259 39983 ft 387 kts 289°
2026-04-21 18:25 30.31731 -100.60168 40085 ft 371 kts 288°
2026-04-21 18:25 30.32515 -100.62996 40190 ft 369 kts 288°
2026-04-21 18:26 30.34105 -100.68736 40247 ft 381 kts 287°
2026-04-21 18:26 30.35720 -100.74565 40241 ft 380 kts 287°
2026-04-21 18:27 30.37323 -100.80357 40251 ft 383 kts 287°
2026-04-21 18:27 30.38940 -100.86295 40230 ft 387 kts 288°
2026-04-21 18:28 30.40595 -100.92226 40232 ft 388 kts 287°
2026-04-21 18:28 30.42236 -100.98180 40226 ft 390 kts 287°
2026-04-21 18:29 30.43884 -101.04215 40214 ft 391 kts 285°
2026-04-21 18:29 30.45504 -101.10220 40206 ft 392 kts 285°
2026-04-21 18:30 30.47182 -101.16311 40220 ft 392 kts 287°
2026-04-21 18:30 30.48855 -101.22375 40215 ft 392 kts 287°
2026-04-21 18:31 30.50501 -101.28412 40214 ft 392 kts 287°
2026-04-21 18:31 30.52148 -101.34471 40214 ft 392 kts 287°
2026-04-21 18:32 30.53781 -101.40492 40213 ft 392 kts 287°
2026-04-21 18:32 30.55403 -101.46513 40207 ft 391 kts 287°
2026-04-21 18:33 30.57033 -101.52529 40209 ft 392 kts 287°
2026-04-21 18:33 30.58679 -101.58628 40210 ft 392 kts 287°
2026-04-21 18:34 30.60299 -101.64648 40209 ft 392 kts 287°
2026-04-21 18:34 30.61918 -101.70681 40222 ft 392 kts 287°
2026-04-21 18:35 30.63247 -101.75741 40211 ft 391 kts 285°
2026-04-21 18:35 30.65127 -101.82812 40210 ft 392 kts 285°
2026-04-21 18:36 30.66758 -101.88844 40222 ft 392 kts 287°
2026-04-21 18:36 30.68361 -101.94924 40208 ft 391 kts 285°
2026-04-21 18:37 30.69981 -102.00925 40217 ft 392 kts 287°
2026-04-21 18:37 30.71586 -102.06960 40203 ft 392 kts 287°
2026-04-21 18:38 30.73183 -102.12993 40186 ft 391 kts 287°
2026-04-21 18:38 30.74783 -102.19055 40169 ft 392 kts 287°
2026-04-21 18:39 30.76376 -102.25098 40152 ft 392 kts 287°
2026-04-21 18:39 30.77961 -102.31128 40149 ft 391 kts 287°
2026-04-21 18:40 30.79544 -102.37163 40148 ft 392 kts 287°
2026-04-21 18:40 30.80863 -102.42200 40147 ft 392 kts 287°
2026-04-21 18:41 30.82706 -102.49251 40146 ft 392 kts 287°
2026-04-21 18:41 30.84276 -102.55275 40145 ft 392 kts 287°
2026-04-21 18:42 30.85854 -102.61339 40144 ft 392 kts 287°
2026-04-21 18:42 30.87429 -102.67409 40159 ft 392 kts 286°
2026-04-21 18:43 30.88995 -102.73448 40158 ft 391 kts 286°
2026-04-21 18:43 30.90555 -102.79485 40156 ft 390 kts 286°
2026-04-21 18:44 30.92112 -102.85519 40156 ft 389 kts 286°
2026-04-21 18:44 30.93660 -102.91531 40155 ft 388 kts 286°
2026-04-21 18:45 30.95211 -102.97510 40150 ft 388 kts 288°
2026-04-21 18:45 30.97060 -103.03442 40140 ft 388 kts 287°
2026-04-21 18:46 30.98953 -103.09425 40141 ft 388 kts 287°
2026-04-21 18:46 31.00802 -103.15247 40139 ft 388 kts 287°
2026-04-21 18:47 31.02692 -103.21139 40148 ft 387 kts 287°
2026-04-21 18:47 31.04548 -103.26975 40147 ft 385 kts 288°
2026-04-21 18:48 31.06406 -103.32828 40147 ft 384 kts 288°
2026-04-21 18:48 31.08249 -103.38663 40147 ft 385 kts 288°
2026-04-21 18:49 31.10091 -103.44509 40146 ft 385 kts 288°
2026-04-21 18:49 31.11620 -103.49371 40147 ft 385 kts 288°
2026-04-21 18:50 31.13772 -103.56225 40148 ft 384 kts 288°
2026-04-21 18:50 31.15624 -103.62137 40145 ft 385 kts 288°
2026-04-21 18:51 31.17466 -103.68034 40165 ft 385 kts 288°
2026-04-21 18:51 31.19302 -103.73913 40160 ft 385 kts 288°
2026-04-21 18:52 31.21125 -103.79762 40160 ft 384 kts 288°
2026-04-21 18:52 31.22940 -103.85599 40159 ft 384 kts 288°
2026-04-21 18:53 31.24764 -103.91476 40158 ft 384 kts 288°
2026-04-21 18:53 31.26572 -103.97310 40161 ft 384 kts 288°
2026-04-21 18:54 31.28381 -104.03160 40164 ft 384 kts 288°
2026-04-21 18:54 31.30204 -104.09067 39650 ft 388 kts 288°
2026-04-21 18:54 31.31118 -104.12030 39194 ft 384 kts 288°
2026-04-21 18:55 31.31713 -104.13960 38886 ft 380 kts 288°
2026-04-21 18:55 31.32890 -104.17786 38264 ft 370 kts 288°
2026-04-21 18:55 31.33749 -104.20579 37800 ft 364 kts 288°
2026-04-21 18:55 31.34590 -104.23318 37338 ft 358 kts 288°
2026-04-21 18:56 31.35419 -104.26017 36875 ft 352 kts 288°
2026-04-21 18:56 31.36240 -104.28696 36411 ft 347 kts 288°
2026-04-21 18:56 31.37050 -104.31343 35948 ft 344 kts 288°
2026-04-21 18:56 31.37846 -104.33948 35488 ft 341 kts 286°
2026-04-21 18:57 31.38631 -104.36593 34999 ft 338 kts 286°
2026-04-21 18:57 31.39408 -104.39173 34521 ft 337 kts 286°
2026-04-21 18:57 31.40187 -104.41740 34040 ft 334 kts 286°
2026-04-21 18:57 31.40975 -104.44329 33543 ft 332 kts 286°
2026-04-21 18:58 31.41744 -104.46856 33031 ft 331 kts 286°
2026-04-21 18:58 31.42522 -104.49378 32515 ft 330 kts 288°
2026-04-21 18:58 31.43310 -104.51902 32014 ft 329 kts 287°
2026-04-21 18:58 31.44076 -104.54391 31517 ft 327 kts 287°
2026-04-21 18:59 31.44838 -104.56885 31015 ft 325 kts 287°
2026-04-21 18:59 31.45593 -104.59367 30508 ft 324 kts 287°
2026-04-21 18:59 31.46347 -104.61851 30004 ft 324 kts 287°
2026-04-21 18:59 31.47098 -104.64324 29506 ft 323 kts 287°
2026-04-21 19:00 31.47846 -104.66798 29022 ft 322 kts 286°
2026-04-21 19:00 31.48589 -104.69253 28565 ft 320 kts 286°
2026-04-21 19:00 31.49323 -104.71679 28105 ft 319 kts 286°
2026-04-21 19:00 31.50061 -104.74121 27633 ft 318 kts 286°
2026-04-21 19:01 31.50797 -104.76556 27156 ft 317 kts 286°
2026-04-21 19:01 31.51525 -104.78971 26678 ft 316 kts 286°
2026-04-21 19:01 31.52261 -104.81413 26192 ft 315 kts 286°
2026-04-21 19:01 31.52984 -104.83813 25714 ft 314 kts 286°
2026-04-21 19:02 31.53689 -104.86229 25219 ft 312 kts 284°
2026-04-21 19:02 31.54408 -104.88615 24734 ft 311 kts 286°
2026-04-21 19:02 31.55133 -104.90991 24262 ft 311 kts 286°
2026-04-21 19:02 31.55861 -104.93395 23780 ft 311 kts 286°
2026-04-21 19:03 31.56576 -104.95766 23304 ft 311 kts 285°
2026-04-21 19:03 31.57289 -104.98141 22828 ft 311 kts 285°
2026-04-21 19:03 31.58006 -105.00536 22351 ft 311 kts 285°
2026-04-21 19:03 31.58714 -105.02900 21880 ft 311 kts 285°
2026-04-21 19:04 31.59429 -105.05293 21400 ft 310 kts 285°
2026-04-21 19:04 31.60137 -105.07661 20926 ft 310 kts 285°
2026-04-21 19:04 31.60850 -105.10049 20449 ft 310 kts 285°
2026-04-21 19:04 31.61563 -105.12440 19970 ft 309 kts 285°
2026-04-21 19:05 31.62263 -105.14790 19497 ft 309 kts 285°
2026-04-21 19:05 31.62973 -105.17169 19019 ft 308 kts 285°
2026-04-21 19:05 31.63678 -105.19540 18541 ft 307 kts 285°
2026-04-21 19:05 31.64372 -105.21870 18069 ft 306 kts 286°
2026-04-21 19:06 31.65074 -105.24236 17594 ft 305 kts 286°
2026-04-21 19:06 31.65767 -105.26567 17125 ft 304 kts 286°
2026-04-21 19:06 31.66456 -105.28887 16662 ft 303 kts 286°
2026-04-21 19:06 31.67147 -105.31218 16202 ft 303 kts 286°
2026-04-21 19:07 31.67843 -105.33566 15746 ft 302 kts 286°
2026-04-21 19:07 31.68523 -105.35862 15297 ft 301 kts 287°
2026-04-21 19:07 31.69211 -105.38187 14840 ft 300 kts 287°
2026-04-21 19:07 31.69891 -105.40489 14383 ft 300 kts 287°
2026-04-21 19:08 31.70573 -105.42798 13930 ft 299 kts 287°
2026-04-21 19:08 31.71246 -105.45074 13483 ft 299 kts 287°
2026-04-21 19:08 31.71928 -105.47385 13030 ft 298 kts 287°
2026-04-21 19:08 31.72601 -105.49670 12581 ft 298 kts 287°
2026-04-21 19:09 31.73274 -105.51957 12132 ft 298 kts 287°
2026-04-21 19:09 31.73950 -105.54251 11681 ft 298 kts 288°
2026-04-21 19:09 31.74625 -105.56540 11233 ft 297 kts 288°
2026-04-21 19:09 31.75304 -105.58849 10779 ft 297 kts 288°
2026-04-21 19:10 31.75972 -105.61125 10333 ft 297 kts 287°
2026-04-21 19:10 31.76646 -105.63418 9882 ft 296 kts 288°
2026-04-21 19:10 31.77311 -105.65686 9436 ft 296 kts 287°
2026-04-21 19:10 31.77980 -105.67967 8981 ft 286 kts 287°
2026-04-21 19:11 31.78605 -105.70099 8478 ft 271 kts 287°
2026-04-21 19:11 31.79203 -105.72141 7989 ft 258 kts 287°
2026-04-21 19:11 31.79781 -105.74120 7635 ft 258 kts 287°
2026-04-21 19:11 31.80364 -105.76116 7288 ft 258 kts 287°
2026-04-21 19:12 31.80950 -105.78122 6941 ft 259 kts 287°
2026-04-21 19:12 31.81527 -105.80100 6599 ft 259 kts 287°
2026-04-21 19:12 31.82117 -105.82124 6262 ft 259 kts 287°
2026-04-21 19:12 31.82689 -105.84084 6183 ft 248 kts 287°
2026-04-21 19:13 31.83234 -105.85953 6155 ft 236 kts 287°
2026-04-21 19:13 31.83752 -105.87733 6136 ft 224 kts 287°
2026-04-21 19:13 31.84244 -105.89422 6137 ft 212 kts 287°
2026-04-21 19:13 31.84706 -105.91010 6133 ft 201 kts 286°
2026-04-21 19:14 31.85145 -105.92519 6134 ft 189 kts 286°
2026-04-21 19:14 31.85566 -105.93971 6232 ft 185 kts 286°
2026-04-21 19:14 31.85977 -105.95390 6507 ft 188 kts 286°
2026-04-21 19:14 31.86406 -105.96867 6746 ft 192 kts 286°
2026-04-21 19:15 31.86939 -105.98338 6774 ft 197 kts 297°
2026-04-21 19:15 31.87626 -105.99731 6780 ft 196 kts 297°
2026-04-21 19:15 31.88306 -106.01099 6781 ft 194 kts 297°
2026-04-21 19:15 31.88993 -106.02482 6781 ft 194 kts 297°
2026-04-21 19:16 31.89671 -106.03847 6782 ft 194 kts 297°
2026-04-21 19:16 31.90354 -106.05218 6782 ft 194 kts 297°
2026-04-21 19:16 31.91040 -106.06598 6782 ft 194 kts 297°
2026-04-21 19:16 31.91702 -106.07980 6775 ft 193 kts 289°
2026-04-21 19:17 31.92237 -106.11053 6695 ft 195 kts 277°
2026-04-21 19:17 31.92468 -106.12617 6487 ft 194 kts 277°
2026-04-21 19:17 31.92699 -106.14180 6304 ft 189 kts 277°
2026-04-21 19:18 31.92903 -106.15681 6280 ft 185 kts 270°
2026-04-21 19:18 31.92735 -106.17182 6300 ft 186 kts 258°
2026-04-21 19:18 31.92493 -106.18688 6269 ft 189 kts 258°
2026-04-21 19:18 31.92245 -106.20216 6121 ft 190 kts 258°
2026-04-21 19:19 31.91999 -106.21737 5967 ft 188 kts 258°
2026-04-21 19:19 31.91755 -106.23245 5809 ft 183 kts 258°
2026-04-21 19:19 31.91392 -106.24589 5731 ft 168 kts 234°
2026-04-21 19:19 31.90618 -106.25540 5770 ft 159 kts 224°
2026-04-21 19:20 31.89833 -106.26432 5753 ft 151 kts 224°
2026-04-21 19:20 31.89165 -106.27356 5776 ft 151 kts 231°
2026-04-21 19:20 31.88497 -106.28324 5783 ft 153 kts 230°
2026-04-21 19:20 31.87792 -106.29308 5643 ft 158 kts 230°
2026-04-21 19:21 31.87087 -106.30289 5444 ft 156 kts 230°
2026-04-21 19:21 31.86404 -106.31249 5241 ft 153 kts 230°
2026-04-21 19:21 31.85725 -106.32201 5038 ft 151 kts 230°
2026-04-21 19:21 31.85038 -106.33142 4839 ft 151 kts 231°
2026-04-21 19:22 31.84370 -106.34094 4644 ft 152 kts 230°
2026-04-21 19:22 31.83683 -106.35056 4441 ft 152 kts 230°
2026-04-21 19:22 31.83010 -106.35997 4240 ft 152 kts 231°
2026-04-21 19:22 31.82322 -106.36960 4028 ft 152 kts 231°
2026-04-21 19:23 31.81676 -106.37862 3967 ft 117 kts 231°
2026-04-21 19:23 31.81371 -106.38289 3966 ft 48 kts 230°
2026-04-21 19:23 31.81165 -106.38579 3966 ft 42 kts 231°
2026-04-21 19:23 31.80986 -106.38826 3966 ft 37 kts 230°
2026-04-21 19:24 31.80879 -106.38974 3966 ft 18 kts 228°
2026-04-21 19:24 31.80797 -106.39056 3966 ft 13 kts 209°
2026-04-21 19:24 31.80710 -106.39101 3966 ft 14 kts 199°
2026-04-21 19:24 31.80611 -106.39142 3966 ft 15 kts 200°
2026-04-21 19:25 31.80506 -106.39188 3966 ft 16 kts 200°
2026-04-21 19:25 31.80392 -106.39233 3966 ft 18 kts 199°
2026-04-21 19:25 31.80271 -106.39287 3966 ft 16 kts 199°
2026-04-21 19:25 31.80183 -106.39270 3966 ft 11 kts 138°
2026-04-21 19:26 31.80138 -106.39217 3966 ft 6 kts 135°
2026-04-21 19:26 31.80106 -106.39200 3966 ft 5 kts 195°
2026-04-21 19:26 31.80084 -106.39226 3966 ft 3 kts 248°
2026-04-21 19:26 31.80074 -106.39256 3966 ft 0 kts 247°